Location: *
(48.9069°S, 177.8208°W)
Time: 21:26:48
(UTC+00:00)

Daily predictions for brighter satellites

Satellite Brightness Start Highest point End
(mag) Time Altitude Azimuth Time Altitude Azimuth Time Altitude Azimuth
Cosmos 2263 Rocket 4.3 15:22:53 21° E 15:22:53 21° E 15:24:58 10° ENE
Cosmos 1980 Rocket 3.9 15:35:06 30° ESE 15:35:06 30° ESE 15:38:46 10° SE
SL-16 R/B 4.5 15:47:55 10° S 15:49:28 19° S 15:49:28 19° S
SeaSat 1 3.4 16:09:51 10° NE 16:14:02 46° ESE 16:14:02 46° ESE
S3M 4.2 16:17:53 37° S 16:20:30 69° ESE 16:26:46 10° NNE
SL-16 R/B 4.4 16:20:56 10° NNE 16:25:18 23° ENE 16:29:42 10° SE
USA 234 3.1 16:19:18 10° SE 16:25:57 85° SSW 16:26:20 80° W
Cosmos 1697 Rocket 3.9 16:30:03 32° S 16:30:03 32° S 16:33:10 10° SSE
Cosmos 2266 Rocket 4.1 16:30:49 10° N 16:36:51 70° E 16:42:58 10° SSE
Cosmos 1417 Rocket 4.4 16:41:05 67° SW 16:41:46 73° W 16:48:09 10° N
Cosmos 1844 Rocket 4.1 16:38:48 21° S 16:41:46 33° SE 16:46:49 10° ENE
Blok-L 3.9 16:42:19 75° E 16:42:19 75° E 16:49:12 10° NE
SMAP 3.9 16:37:38 10° NE 16:42:10 49° ESE 16:44:17 29° S
Cosmos 839 Rocket 4.5 16:42:54 55° WSW 16:43:26 56° SW 16:50:09 10° SSE
Exosat Rocket 4.0 16:42:08 43° S 16:43:34 59° ESE 16:49:12 10° NE
Blok-ML 4.4 16:53:40 71° SSW 16:54:05 81° SE 17:05:51 10° NE
SJ-11-01 4.5 16:49:44 10° NNE 16:54:26 71° ESE 16:56:12 38° S
Cosmos 2369 3.6 16:58:24 64° W 16:58:45 65° WSW 17:04:29 10° SSE
BREEZE-M DEB (TANK) 3.0 17:00:04 44° ENE 17:00:04 44° ENE 17:01:45 10° E
DNEPR-1 R/B 3.6 17:02:35 60° SSE 17:02:52 62° SE 17:07:02 10° NE
Cosmos 2263 Rocket 2.5 17:04:38 46° NW 17:04:38 46° NW 17:09:19 10° N
Cosmos 2278 3.8 17:02:42 10° NNW 17:08:24 79° ENE 17:14:11 10° SSE
Genesis I 4.3 17:11:30 33° N 17:11:30 33° N 17:13:54 10° NNE
ARGOS 3.1 17:05:58 10° N 17:11:23 60° W 17:13:07 41° SW
Cosmos 883 Rocket 4.3 17:07:03 10° SSW 17:13:15 71° W 17:19:21 10° N
Cosmos 1544 4.4 17:13:48 19° SSE 17:15:48 37° ESE 17:19:00 10° NE
Cosmos 1992 Rocket 4.4 17:13:05 19° SSW 17:16:49 61° ESE 17:22:01 10° NE
Cosmos 1980 Rocket 2.4 17:16:55 45° WSW 17:17:30 47° SW 17:23:04 10° SSE
CBERS 1 LM4 rocket 4.4 17:14:04 10° NNE 17:18:57 79° ESE 17:23:03 14° SSW
Cosmos 1666 4.0 17:16:51 12° S 17:20:04 39° ESE 17:23:33 10° NE
SL-24 R/B 4.4 17:16:06 10° NNE 17:20:44 89° WNW 17:26:16 10° SSW
AQUARIUS 4.0 17:23:52 10° N 17:28:24 79° WNW 17:31:36 20° SSW
Cosmos 2315 Rocket 4.0 17:23:54 10° SSW 17:30:05 61° W 17:36:13 10° N
CZ-2C R/B 4.1 17:26:45 10° S 17:28:52 20° SSW 17:28:52 20° SSW
ISS -3.9 17:34:51 68° W 17:35:14 86° NNW 17:38:40 10° ENE
BREEZE-M DEB (TANK) 1.9 17:35:26 48° N 17:35:36 49° NNE 17:38:39 10° E
SL-16 R/B 4.4 17:33:10 10° SSW 17:34:33 13° SSW 17:34:33 13° SSW
CZ-4B R/B 3.8 17:32:44 10° N 17:37:37 42° W 17:39:40 29° SW
Timation 2 Rocket 3.9 17:35:22 25° SW 17:38:56 60° WNW 17:45:05 10° NNE
SL-08 RB Rocket 4.1 17:37:21 10° NNW 17:41:33 39° W 17:42:34 34° WSW
Cosmos 1242 Rocket 2.5 17:43:59 48° W 17:44:14 49° W 17:47:31 10° N
Cosmos 2237 4.4 17:39:28 10° NNW 17:45:11 78° ENE 17:51:00 10° SSE
Cosmos 1655 Rocket 4.2 17:39:29 10° NNW 17:45:31 48° WSW 17:51:39 10° S
Cosmos 1602 3.5 17:44:57 14° S 17:48:11 85° W 17:51:58 10° N
Cosmos 1782 4.4 17:47:38 10° NNE 17:51:16 36° E 17:54:59 10° SSE
Meteor 1-31 Rocket 4.5 17:48:13 10° NNW 17:49:42 18° NW 17:49:42 18° NW
SeaSat 1 3.3 17:47:50 10° N 17:52:13 31° WNW 17:53:48 26° WSW
Cosmos 1818 3.8 17:49:20 20° WNW 17:52:56 50° SW 17:58:14 10° SSE
Cosmos 1461 2.6 17:51:10 28° SW 17:53:10 90° ESE 17:57:09 10° NE
CORIOLIS 4.4 17:48:11 10° N 17:53:21 46° W 17:58:37 10° SSW
Meteor PRIRODA 3.5 17:49:58 10° N 17:53:36 77° WNW 17:56:47 13° SSW
Cosmos 1766 Rocket 4.3 17:49:09 10° S 17:53:39 56° ESE 17:58:03 10° NNE
NOAA 6 4.0 17:50:52 10° N 17:56:03 78° WNW 18:01:18 10° SSW
Cosmos 44 3.6 17:54:38 28° WSW 17:56:11 39° WNW 18:00:10 10° N
Helios 1A 3.9 17:54:11 10° S 17:57:32 26° WSW 17:57:32 26° WSW
Meteor 1-20 Rocket 4.2 17:55:55 10° SSW 18:01:37 80° W 18:07:22 10° N
Cosmos 1500 3.5 18:01:15 19° SSW 18:03:37 42° W 18:07:08 10° NNW
Meteor 1-25 Rocket 4.2 18:01:59 10° SSW 18:07:43 82° W 18:13:19 10° N
USA 234 3.7 18:02:19 10° ESE 18:08:38 49° SSW 18:13:41 16° W
SL-16 R/B 2.2 18:03:14 10° NW 18:08:54 66° WSW 18:14:39 10° SSE
CZ-4B R/B 3.0 18:07:57 10° N 18:12:13 73° WNW 18:16:43 10° SSW
Cosmos 2322 Rocket 2.2 18:06:37 10° NNW 18:12:15 86° WSW 18:17:59 10° SSE
Cosmos 1697 Rocket 4.3 18:11:49 15° SW 18:12:50 15° SSW 18:16:10 10° S
Cosmos 1844 3.8 18:07:42 10° SSW 18:13:29 72° WNW 18:19:14 10° NNE
Okean O Rocket 3.7 18:10:39 10° ENE 18:14:19 26° ESE 18:18:00 10° S
DELTA 2 DEB (DPAF) 4.1 18:14:42 10° SSE 18:19:10 89° ENE 18:23:34 10° NNW
Cosmos 2360 Rocket 2.4 18:13:45 10° NNW 18:19:25 80° ENE 18:25:11 10° SSE
SMAP 4.2 18:16:04 10° NW 18:19:46 23° W 18:22:45 13° SW
Cosmos 2221 2.7 18:18:51 10° N 18:23:13 77° E 18:27:37 10° SSE
Cosmos 1844 Rocket 2.9 18:20:29 10° SW 18:25:53 50° WNW 18:31:16 10° N
Cosmos 2333 Rocket 2.6 18:25:47 10° NNW 18:31:24 71° ENE 18:37:08 10° SSE
COSMO-SKYMED 1 2.6 18:27:44 10° S 18:32:07 60° WSW 18:36:27 10° NNW
Cosmos 1269 Rocket 4.2 18:28:42 10° NW 18:33:53 50° WSW 18:39:08 10° SSE
SL-4 R/B 3.1 18:29:55 10° NW 18:34:19 54° NNE 18:38:55 10° ESE
Cosmos-2242 4.1 18:30:51 10° NW 18:34:30 25° WSW 18:38:13 10° SSW
Cosmos 1933 3.3 18:31:37 10° NNW 18:35:42 73° W 18:39:52 10° S
Cosmos 2333 4.5 18:34:26 10° NNW 18:40:04 76° ENE 18:45:48 10° SSE
Cosmos 2219 Rocket 2.9 18:38:01 10° N 18:43:32 60° ENE 18:49:06 10° SE
USA 81 4.1 18:38:18 10° SSW 18:43:35 61° W 18:48:48 10° N
ADEOS 4.3 18:39:40 10° NNW 18:44:22 32° W 18:49:08 10° SSW
Cosmos 1812 3.1 18:41:52 10° NW 18:45:27 39° WSW 18:49:05 10° S
Landsat 4 4.4 18:44:09 10° NNW 18:47:32 33° W 18:50:57 10° SSW
CZ-4B R/B 3.5 18:45:36 10° NNE 18:51:18 81° ESE 18:56:59 10° SSW
CZ-4 R/B 1.6 18:49:42 10° NNE 18:53:42 78° ESE 18:57:52 10° S
Cosmos 1666 4.2 18:52:20 10° SW 18:54:49 17° W 18:57:16 10° NW
Meteor 2-20 4.5 18:48:42 10° SSW 18:54:52 76° W 19:00:59 10° N
Cosmos 1500 Rocket 4.1 18:53:23 10° S 18:57:49 65° ESE 19:02:13 10° NNE
NOSS 3-3 (A) 3.9 18:51:50 10° SW 18:58:30 84° NW 19:04:07 10° NE
NOSS 3-3 (C) 3.9 18:51:55 10° SW 18:58:35 85° NW 19:04:13 10° NE
Cosmos 1745 Rocket 4.0 18:52:54 10° NNW 18:58:59 61° WSW 19:05:10 10° S
PSLV R/B 3.8 18:56:29 10° N 19:00:20 69° WNW 19:04:11 10° SSW
Cosmos 1709 Rocket 4.0 18:56:00 10° N 19:02:09 84° W 19:08:28 10° S
